Simultaneous Nadir Overpasses (SNOs) Predictions

Prediction of SNOs between GOES-15 and NPP Satellite Orbit:

Table of predicted SNOs for the next 14.0 days since TLE Epoch: 10/28/2016
Index Date Time (GOES-15) GOES-15 Lat,Lon NPP Lat,Lon Distance(km) Time Diff (sec)
1 10/29/2016 22:34:31 -0.12,-134.66 -0.77,-137.48 321.48 80
2 10/30/2016 22:18:27 -0.14,-134.70 0.24,-132.95 199.77 80
3 11/01/2016 10:37:35 0.11,-134.82 0.90,-138.23 389.59 80
4 11/02/2016 10:21:31 0.13,-134.85 -0.12,-133.70 131.07 80
5 11/03/2016 22:40:48 -0.10,-134.86 -1.04,-139.02 473.97 80
6 11/04/2016 22:24:43 -0.11,-134.90 -0.02,-134.49 46.34 80
7 11/07/2016 10:25:07 0.10,-135.03 0.14,-135.24 24.33 80
8 11/08/2016 10:09:03 0.11,-135.06 -0.88,-130.71 495.30 80
9 11/09/2016 22:28:20
